Content
SEND FEEDBACK

Daily
Averages
Monthly
Summary
United States of America

MALDEN, MISSOURI


Home > North America > United States > Missouri
Elevation: 295 feet     Latitude: 36 36N     Longitude: 089 59W

WEATHER
 
SELECT A DAY
Number of Records: 207,697;   Date Range: 1/1/95 - 7/26/14
 
SHARE

PRINT THIS DATA

[ ← Previous Day ]
WEATHER ALMANAC - MARCH 12, 2014
[ Next Day → ]
[ °C ]   °F
Weather ElementAverageHighLow
Temperature48.7 °F62.1 °F (1:38 am)36 °F (11:53 pm)
Dewpoint32.6 °F55 °F (1:38 am)19 °F (5:53 pm)
Humidity55.9 %81 % (3:13 am)28 % (4:53 pm)
Barometer29.85 in30.16 in (11:53 pm)29.47 in (1:38 am)
Wind Speed18.5 mph31.1 mph (4:53 am)
Wind Gust42.6 mph (6:12 am)
Weather ElementAverage
Visibility10 mi
Wind DirectionWNW (278.5 °)

Weather ElementTotal
Precipitation---
Heating Degree Days16 (Base 65)
Averaged from 33 records on March 12, 2014
WEATHER CONDITIONS BREAKOUT
WIND DIRECTION BREAKOUT
WEATHER BY HOUR - MARCH 12, 2014
[ °C ]   °F
Local TimeTemperatureDewpointHumidityBarometerVisibilityWind DirectionWind SpeedGust SpeedPrecipitationEventsConditions
1:38 AM62.1 °F55.0 °F78 %29.47 in10.0 miSSW (210°)15.0 mph24.2 mphMostly Cloudy
1:53 AM62.1 °F55.0 °F78 %29.47 in10.0 miSSW (210°)15.0 mphOvercast
2:01 AM62.1 °F55.0 °F78 %29.47 in10.0 miSW (220°)16.1 mph26.5 mphOvercast
2:30 AM62.1 °F55.0 °F78 %29.48 in10.0 miSW (230°)15.0 mphOvercast
2:53 AM62.1 °F55.0 °F78 %29.47 in10.0 miSW (220°)16.1 mph25.3 mphOvercast
3:13 AM61.0 °F55.0 °F81 %29.49 in9.0 miWSW (240°)11.5 mphScattered Clouds
3:29 AM57.0 °F46.0 °F67 %29.53 in10.0 miNW (310°)28.8 mph40.3 mphMostly Cloudy
3:53 AM52.0 °F42.1 °F69 %29.56 in10.0 miNW (310°)24.2 mph38.0 mphOvercast
4:53 AM46.9 °F36.0 °F66 %29.63 in10.0 miNNW (330°)31.1 mph38.0 mphOvercast
5:53 AM45.0 °F33.1 °F63 %29.72 in10.0 miNW (320°)31.1 mph39.1 mphOvercast
6:12 AM44.1 °F30.9 °F60 %29.73 in10.0 miNW (320°)27.6 mph42.6 mphOvercast
6:53 AM43.0 °F30.9 °F62 %29.77 in10.0 miNNW (340°)23.0 mph34.5 mphOvercast
7:16 AM43.0 °F30.0 °F60 %29.79 in10.0 miNNW (330°)27.6 mph38.0 mphOvercast
7:34 AM43.0 °F30.0 °F60 %29.81 in10.0 miNNW (340°)26.5 mph41.4 mphOvercast
7:53 AM43.0 °F30.0 °F60 %29.83 in10.0 miNNW (330°)20.7 mph31.1 mphMostly Cloudy
8:53 AM43.0 °F30.0 °F60 %29.89 in10.0 miNW (320°)20.7 mph29.9 mphMostly Cloudy
9:44 AM43.0 °F30.0 °F60 %29.93 in10.0 miNW (320°)18.4 mph29.9 mphOvercast
9:53 AM42.1 °F28.9 °F60 %29.94 in10.0 miNW (320°)19.6 mph32.2 mphOvercast
10:20 AM43.0 °F28.9 °F58 %29.95 in10.0 miNNW (330°)17.3 mph31.1 mphOvercast
10:53 AM45.0 °F28.9 °F53 %29.97 in10.0 miNW (320°)24.2 mph33.4 mphOvercast
11:53 AM45.0 °F27.0 °F49 %30.01 in10.0 miNNW (330°)21.9 mph28.8 mphOvercast
12:53 PM48.0 °F27.0 °F44 %30.02 in10.0 miNorth (350°)23.0 mph33.4 mphMostly Cloudy
1:53 PM48.0 °F24.1 °F39 %30.02 in10.0 miNNW (330°)19.6 mph27.6 mphMostly Cloudy
2:53 PM51.1 °F21.9 °F32 %30.03 in10.0 miNW (310°)21.9 mph29.9 mphScattered Clouds
3:53 PM51.1 °F21.9 °F32 %30.03 in10.0 miNorth (350°)19.6 mph35.7 mphPartly Cloudy
4:53 PM52.0 °F19.9 °F28 %30.04 in10.0 miNorth (350°)20.7 mph27.6 mphPartly Cloudy
5:53 PM50.0 °F19.0 °F29 %30.06 in10.0 miNNW (330°)18.4 mph24.2 mphPartly Cloudy
6:53 PM48.9 °F19.9 °F32 %30.09 in10.0 miNNW (330°)11.5 mphClear
7:53 PM46.9 °F19.9 °F34 %30.12 in10.0 miNNW (330°)16.1 mph21.9 mphClear
8:53 PM45.0 °F19.9 °F37 %30.14 in10.0 miNW (310°)6.9 mphScattered Clouds
9:53 PM42.1 °F21.0 °F43 %30.15 in10.0 miCalmClear
10:53 PM39.0 °F23.0 °F53 %30.15 in10.0 miCalmClear
11:53 PM36.0 °F25.0 °F64 %30.16 in10.0 miCalmClear
Hourly data recorded from KPOF, located miles away from Malden, Missouri







STORIES FROM OUR PARTNERS